COSMOS 249 DEB, 18551

Orbit data source: Space-Track

COSMOS 249 DEB, 18551 is space debris in LEO originally from a launch on Sun, 20 Oct 1968 UTC launched from the Tyuratam Missile And Space Complex (TTMTR). Debris objects in space refer to the collection of defunct objects orbiting the Earth. Examples of debris include non-operational satellites, rocket bodies, and fragments generated from explosions, collisions, or faulty payload assembly.

Loading next visibility...
Identifier
18551, 1968-091DF
Orbit
LEO
Country
Flag of CISCIS
Related business
Manufacturer
Unknown
Mission
Spacecraft
Bus & Motor
Unknown
Mass
Unknown
Launch date (UTC)
1968-10-20 (58 years ago)
Launch vehicle
Unknown
Launch site
Tyuratam Missile And Space Complex (TTMTR)
Object type
Payload
Rocket body
Debris
Shape & HBR
Unknown shape, 0.1 m
Radar Cross Section
Medium (>0.1 m² and <1 m²)

Expand to show TLE details & history
Last TLE update: 9 hours ago

TLE from 9 hours ago
0 COSMOS 249 DEB
1 18551U 68091DF  26174.90426310  .00000446  00000-0  23939-3 0  9992
2 18551  62.2949 120.8780 0697468 192.1868 277.2170 13.39915046647436
Epoch: 2026-06-23T21:42Z
TLE epoch observation values (Epoch: 2026-06-23T21:42:08.331Z)
Latitude
60.33181°
Longitude
-3.23217°
Altitude
1,089.285 km
Speed
7.328 km/s
True Right ascension
15h 37m 29s
True Declination
60° 11' 25"
Sunlit
Object was in daylight at epoch
Visualization orbit readout
Latitude
Unknown
Longitude
Unknown
Altitude
Unknown
Speed
Unknown
Apparent Right ascension
Unknown
Apparent Declination
Unknown
Sunlit
N/A
Visualization observer readout
Local Sidereal Time
18:09:27
Azimuth
Unknown
Elevation
Unknown
Doppler factor
Unknown
Orbital elements
Apogee altitude
1,630.732 km
Perigee altitude
586.386 km
Semi-major axis
7,486.696 km
Eccentricity
0.06975
Inclination
62.2949°
RAAN
120.878°
Arg. of periapsis
192.1868°
True anomaly
269.22617°
Mean anomaly
277.217°
Eccentric anomaly
273.22714°
Mean motion
3.35049 °/min
Orbital period
107.45 mins
BSTAR
0.00023939
Loading maneuver chart data...
Computing Atmospheric mass density...

Documentation

Showing up to 5 results
|